Weather in Tiksha

Russia / Republic of Karelia     64°06′55″N   32°24′48″E
temp.,
°C
wind,
m/s
gust,
m/s
humid.,
%
clouds,
%
prec.,
mm/h
press.,
hPa
HPBL,
m
27 july, tue
tue2700:00+12e26676 0.0 1021170
03:00+10ese1271100 0.0 102132
06:00+13ese1273100 0.0 102198
09:00+18ese22540 0.0 1020545
12:00+22ene22435 0.0 10201463
15:00+24nne22367 0.0 10192037
18:00+24nne22356 0.0 10172218
21:00+18ene23597 0.0 101758
28 july, wed
wed2800:00+14se11725 0.0 101712
03:00+13ssw117211 0.0 101610
06:00+15ssw12795 0.0 101479
09:00+21wsw23585 0.0 1012589
12:00+25w2333100 0.0 10101661
15:00+27wnw2329100 0.0 10082182
18:00+27w1231100 0.0 10062317
21:00+21wsw114983 0.0 100511
29 july, thu
thu2900:00+15ese11734 0.1 100513
03:00+16ese006627 0.1 100311
06:00+16e12725 0.0 100276
09:00+21sse23500 0.0 1000502
12:00+26sw2339100 0.0 9982269
15:00+19sw4863100 0.4 998576
18:00+16ne3792100 1.1 997266
21:00+15ese1398100 6.6 996161
30 july, fri
fri3000:00+14ne3598100 0.9 996262
03:00+12ene2497100 1.7 996184
06:00+11ne3698100 10.9 995261
09:00+12n1296100 17.9 996207
12:00+17se1282100 0.2 996607
15:00+17ssw258527 2.5 995316
18:00+16sw4883100 3.3 994220
21:00+14wsw3888100 5.3 994217
31 july, sat
sat3100:00+13ssw2492100 0.3 99495
03:00+11s299523 0.3 993216
06:00+12s389515 0.0 992297
09:00+15sse3682100 0.3 991413
12:00+15sse4881100 1.5 990815
15:00+13sse259599 3.6 990335
18:00+16sse117980 0.5 990602
21:00+13w119370 0.7 99111